This is the latest recevied weather packets stored in our database for station/object OK2ZAW-19. If no packets are shown the sender has not sent any weather packets the latest 10 day(s).
| Time | Temp. | Humidity | Pressure | Rain* | Wind** | Luminosity | Snow |
|---|---|---|---|---|---|---|---|
| 1777664924 | 8.89° C | 63% | 1026.7 hPa | - | - | 337 W/m² | - |
| 1777664614 | 8.89° C | 59% | 1026.6 hPa | - | - | 337 W/m² | - |
| 1777664303 | 8.89° C | 59% | 1026.7 hPa | - | - | 337 W/m² | - |
| 1777663993 | 9.44° C | 57% | 1026.7 hPa | - | - | 337 W/m² | - |
| 1777663683 | 9.44° C | 57% | 1026.7 hPa | - | - | 337 W/m² | - |
| 1777663372 | 9.44° C | 56% | 1026.6 hPa | - | - | 337 W/m² | - |
| 1777663062 | 9.44° C | 54% | 1026.7 hPa | - | - | 337 W/m² | - |
| 1777662752 | 10° C | 55% | 1026.6 hPa | - | - | 337 W/m² | - |
| 1777662441 | 10° C | 54% | 1026.6 hPa | - | - | 337 W/m² | - |
| 1777662131 | 10.56° C | 53% | 1026.6 hPa | - | - | 337 W/m² | - |
| 1777661820 | 10.56° C | 52% | 1026.5 hPa | - | - | 337 W/m² | - |
| 1777661510 | 10.56° C | 50% | 1026.5 hPa | - | - | 337 W/m² | - |
| 1777661200 | 11.11° C | 49% | 1026.5 hPa | - | - | 337 W/m² | - |
| 1777660889 | 11.67° C | 50% | 1026.5 hPa | - | - | 337 W/m² | - |
| 1777660578 | 11.67° C | 50% | 1026.5 hPa | - | - | 337 W/m² | - |
| 1777660268 | 12.22° C | 48% | 1026.5 hPa | - | - | 337 W/m² | - |
| 1777659957 | 12.78° C | 47% | 1026.4 hPa | - | - | 337 W/m² | - |
| 1777659336 | 13.89° C | 44% | 1026.2 hPa | - | - | 337 W/m² | - |
| 1777659025 | 14.44° C | 44% | 1026.2 hPa | - | - | 337 W/m² | - |
| 1777658714 | 15.56° C | 43% | 1026.1 hPa | - | - | 337 W/m² | - |
| 1777658403 | 16.11° C | 42% | 1026 hPa | - | - | 337 W/m² | - |
| 1777658092 | 16.67° C | 40% | 1025.9 hPa | - | - | 337 W/m² | - |
| 1777657781 | 17.22° C | 39% | 1025.9 hPa | - | - | 337 W/m² | - |
| 1777657470 | 17.78° C | 39% | 1025.8 hPa | - | - | 337 W/m² | - |
| 1777657159 | 18.33° C | 38% | 1025.8 hPa | - | - | 337 W/m² | - |
* Rain since midnight (hover to see other rain measurements)
** Current wind speed in m/s (hover to see current wind gust speed)